International Virtual Aviation Organisation

Russian Federation and Kazakhstan MCD

 

Карточка аэропорта ULMM

Внимание!
Информация на этой странице в стадии наполнения.
Если вы не увидели какой-то информации, или заметили неточность - пожалуйста сообщите нам!
Спасибо!
Команда RU-STAFF
Название аэропортаМурманск
Название аэропорта (англ.)Murmansk
Превышение262 ft. (79.9 m.)
Координаты68°46.902', 32°45.066'
Высота перехода900m
Эшелон переходаQFE>=753mm:FL050; QFE<753=>727:FL060; QFE<727:FL070
Коды ответчика3101-3117
Зона ОрВДМурманск РПИ (ULMM)
Данные METARULMM 302200Z 00000MPS CAVOK M04/M04 Q1017 R31/690059 NOSIG RMK QFE755
Проноз погоды (TAF)ULMM 301951Z 3021/3121 24003G09MPS 6000 SCT016 TEMPO 3021/3108 28003G09MPS 0300 -SHSN FZFG BKN002 BKN016CB BECMG 3108/3110 20003G08MPS TEMPO 3110/3121 22003G08MPS -SHSN BKN016CB
NOTAMshow/hide NOTAM
AWOS   TABLE

Информация о ВПП

ВПП Длина ВПП (м.) Покрытие Курс ВПП Частота ILS
132500Асфальтобетон131110.3
312500Асфальтобетон311108.5

Диспетчерские позиции




Спутниковое изображение